Regional Weather Roundup
Issued by NWS Albany, NY

Home | Current Version | Previous Version | Text Only | Print | Product List | Glossary On
Versions: 1 2 3 4 5 6 7 8 9 10 11 12 13 14 15 16 17 18 19 20 21 22 23 24 25 26 27 28 29 30 31 32 33 34 35 36 37 38 39 40 41 42 43 44 45 46 47 48 49 50
000
ASUS41 KALY 261010
RWRALY

NEW YORK STATE HOURLY WEATHER ROUNDUP
NATIONAL WEATHER SERVICE ALBANY NY
500 AM EST MON JAN 26 2015

NOTE: "FAIR" INDICATES FEW OR NO CLOUDS BELOW 12,000 FEET WITH NO
SIGNIFICANT WEATHER AND/OR NO OBSTRUCTIONS TO VISIBILITY.

NYZ032-033-038>043-046>054-057>066-NYZ062>081-261100-
EAST


CITY           SKY/WX    TMP DP  RH WIND       PRES   REMARKS
ALBANY         CLOUDY    10  -2  58 N9        30.11R WCI  -3
GLENS FALLS    MOCLDY     5  -2  72 N5        30.12S WCI  -4
POUGHKEEPSIE   CLOUDY    18   2  49 N7        30.06S WCI   9
MONTGOMERY     CLOUDY    17   2  51 NE9       30.03R WCI   6
WHITE PLAINS   CLOUDY    20   3  48 NE7       29.99F WCI  11
ISLIP          CLOUDY    26  10  50 NE13      30.01S WCI  15
NEW YORK CITY  CLOUDY    24  10  55 NE16      30.02F WCI  11
CENTRAL PARK   CLOUDY    25   6  44 NE12      30.03F WCI  14
$$

NYZ005>009-017-018-044>046-055-056-261100-
CENTRAL


CITY           SKY/WX    TMP DP  RH WIND       PRES   REMARKS
FULTON         PTCLDY     0  -7  72 E3        30.05F
SYRACUSE       MOCLDY     4  -2  76 E6        30.04F WCI  -7
ROME           MOCLDY    -1  -8  72 E7        30.08F WCI -14
ELMIRA         CLOUDY    14  -3  47 E9        29.94F WCI   2
BINGHAMTON     CLOUDY     7  -3  64 E7        29.88F WCI  -5
MONTICELLO     CLOUDY    12   3  67 E12       29.93S WCI  -2
$$

NYZ026>034-041>043-261100-
NORTH


CITY           SKY/WX    TMP DP  RH WIND       PRES   REMARKS
WATERTOWN      PTCLDY     0  -8  69 E3        30.09F
FORT DRUM      NOT AVBL
MASSENA        PTCLDY   -12 -18  74 CALM      30.17S
SARANAC LAKE   PTCLDY   -24 -29  77 N3        29.95F
PLATTSBURGH    PTCLDY    -1  -7  75 N3        30.15S
$$

NYZ001>004-010>016-019>021-261100-
WEST


CITY           SKY/WX    TMP DP  RH WIND       PRES   REMARKS
NIAGARA FALLS  MOCLDY    13   4  67 E17G24    29.95F WCI  -4
BUFFALO        CLOUDY    14   4  64 E15G23    29.93F WCI  -1
DUNKIRK        CLOUDY    14   4  64 NE13      29.88F WCI   0
JAMESTOWN      CLOUDY    12   7  79 E13       29.76F WCI  -3
WELLSVILLE     FLURRIES   9   3  77 E9        29.81F WCI  -4
ROCHESTER      CLOUDY    12  -1  56 E12       30.01F WCI  -2
PENN YAN       CLOUDY    13   1  59 E7        29.96F WCI   3
$$

             KEY
       WCI = WIND CHILL INDEX
       VSB = VISIBILITY
       HX  = HEAT INDEX
$$


USA.gov is the U.S. government's official web portal to all federal, state and local government web resources and services.